APSTAR-6D

Last updated on Wed Nov 20 2024 00:02:43 GMT+0000 (Coordinated Universal Time)

1 45863U 20045A 24323.82094972 -.00000315 00000+0 00000+0 0 9990 2 45863 0.0163 242.9061 0004575 357.9974 246.9997 1.00268765 16094
UTC large
Height (km)
Speed (km/s)
/
Latitude / Longitude
Inclination (degrees)
Orbital Period (minutes)
Azimuth
Elevation
Range (km)
Doppler Factor

Next 0 passes for location: London (51.5072 / 0.1276)

Sorry there are no passes over London.